SCP
0 0 0 0 0 0 0 0 0 0 0 0 0 0 0 0 1 1 1 -0 -0 -0 0 0 0 0 0 -0 -0 -0 0 0 0 0 0 0 0 0 0 0 0 0 0
0 0 -0 -0 -0 0 0 0 0 0 0 0 1 0 1 0 1 1 1 0 0 0 0 0 0 0 0 0 0 0 0 0 -0 -0 0 0 0 0 0 0 0 0 0
0 0 0 0 0 0 0 0 0 0 0 1 1 0 1 1 1 0 0 0 0 0 0 -0 0 0 -0 -0 0 0 0 0 0 0 0 0 0 -0 -0 0 0 0 0
0 0 0 -0 0 0 0 0 0 0 1 1 0 1 1 1 1 1 0 0 0 0 0 0 0 0 -0 -0 0 0 0 0 0 0 0 -0 -0 -0 -0 -0 0 0 -0
-0 0 -0 -0 0 0 0 1 0 0 1 0 0 1 1 1 1 1 0 0 0 0 0 0 0 -0 -0 0 0 -0 0 0 0 0 0 -0 -0 -0 -0 -0 -0 -0 -0
-0 -0 -0 0 0 0 0 0 0 1 1 0 1 1 1 1 1 1 0 0 0 0 0 0 0 0 0 -0 0 -0 -0 0 0 0 -0 -0 -0 -0 -0 -0 -0 -0 -0
0 0 0 0 0 0 0 0 1 1 1 1 1 1 1 0 0 0 0 0 0 0 0 0 0 0 -0 0 -0 -0 -0 0 0 0 0 0 -0 -0 -0 -0 -0 -0 0
0 0 0 0 0 0 0 0 0 1 1 1 1 1 0 0 0 0 0 0 0 0 0 0 0 0 0 0 0 -0 -0 -0 -0 -0 -0 -0 -0 -0 -0 -0 -0 -0 0
-0 0 0 0 0 0 0 0 0 0 0 1 0 0 0 0 0 0 0 0 0 0 0 0 0 0 0 0 0 -0 0 0 -0 -0 -0 -0 -0 -0 -0 -0 -0 0 0
-0 0 0 0 0 0 0 0 0 0 0 0 1 1 0 0 0 0 0 0 0 0 0 0 0 0 0 0 0 0 0 -0 -0 -0 -0 -0 -0 -0 -0 -0 -0 -0 0
-0 0 0 0 0 0 0 0 0 0 0 0 1 1 1 1 0 0 0 0 0 0 0 0 0 0 0 0 0 -0 0 0 -0 -0 -0 -0 -0 -0 -0 -0 -0 -0 0
0 -0 0 0 0 0 0 0 0 0 0 1 1 0 0 0 0 0 0 0 0 0 0 0 0 0 0 0 0 0 -0 -0 -0 -0 0 -0 -0 -0 -0 -0 -0 0 0
0 0 -0 0 0 0 0 0 0 0 0 1 1 1 1 0 0 0 0 0 0 0 0 0 0 0 0 -0 -0 0 -0 -0 -0 -0 -0 -0 -0 -0 -0 -0 0 0 0
0 0 0 0 0 0 0 0 0 0 0 1 0 1 0 0 0 0 0 0 0 0 0 0 0 0 -0 -0 -0 -0 -0 -0 -0 -0 -0 -0 -0 -0 -0 0 0 0 0
0 -0 0 0 0 0 0 0 0 0 1 1 1 0 0 0 0 0 0 0 0 0 0 0 0 0 -0 -0 -0 -0 -0 -0 -0 -0 -0 0 -0 0 0 0 0 0 0
0 0 0 0 0 0 0 0 0 0 0 1 0 0 0 0 0 0 0 0 0 0 0 0 -0 0 0 0 -0 -0 -0 -0 -0 -0 0 -0 0 0 0 0 0 0 0
-0 0 0 0 0 0 0 0 0 0 0 0 0 0 0 0 0 0 0 0 0 0 0 -0 0 0 0 -0 -0 0 -0 -0 -0 -0 0 0 0 0 0 0 0 0 0
0 -0 -0 0 0 0 0 0 -0 0 -0 -0 0 0 0 0 0 0 0 0 0 0 -0 0 0 0 0 0 -0 -0 -0 0 0 -0 0 0 0 0 0 0 0 0 0
0 0 0 0 0 0 0 0 0 -0 0 -0 -0 0 0 0 0 0 0 0 0 0 0 0 -0 0 -0 0 -0 0 0 -0 0 0 0 0 0 0 0 0 0 0 0
0 -0 0 0 0 0 0 -0 -0 0 -0 -0 0 0 -0 -0 -0 0 -0 0 0 0 -0 0 0 0 0 -0 0 0 0 0 0 0 0 0 0 0 0 0 0 0 0
0 0 0 0 0 0 0 0 0 0 -0 -0 -0 -0 0 0 -0 0 -0 -0 -0 -0 -0 0 -0 -0 0 0 0 0 0 0 0 0 0 0 0 0 0 0 0 0 0
0 0 0 -0 0 0 0 0 0 0 0 0 0 0 0 0 0 0 0 0 0 0 0 -0 0 0 0 0 0 0 0 0 0 0 0 0 0 0 0 0 0 0 0
0 0 -0 -0 0 0 0 0 0 0 0 0 0 0 0 0 0 0 0 0 0 0 0 -0 0 0 0 0 0 0 0 0 0 0 0 0 0 0 0 0 0 0 0
0 0 0 -0 -0 0 0 0 0 0 0 0 0 0 0 0 0 0 -0 -0 -0 -0 -0 -0 -0 -0 0 0 0 0 0 0 0 0 0 0 0 0 0 0 0 0 0
0 0 0 0 -0 0 0 0 0 0 -0 0 0 0 -0 -0 0 0 -0 0 0 0 0 0 0 0 0 0 0 0 0 0 0 0 0 0 0 0 0 0 0 0 0
0 0 0 -0 -0 0 -0 0 0 0 0 0 0 -0 0 -0 -0 -0 -0 0 0 0 0 0 0 0 0 0 0 0 0 0 0 0 0 0 0 0 0 0 0 0 0
Wind_Speed_500mb
24 19 24 30 42 45 40 37 34 33 31 34 40 38 35 33 37 36 38 39 36 43 28 56 67 63 57 52 48 50 52 51 51 45 40 34 28 22 16 11 6 6 8
19 15 15 19 42 43 39 34 34 35 34 40 39 27 30 32 38 33 36 42 42 50 40 60 67 68 51 53 48 52 53 54 47 41 37 34 27 19 12 5 5 8 9
18 13 6 12 31 41 39 34 33 32 39 38 35 35 33 35 38 36 38 40 51 53 62 64 67 56 57 56 51 49 53 49 43 38 33 29 24 17 7 3 5 5 7
20 14 9 12 28 34 37 38 35 34 38 36 33 35 34 38 43 40 39 51 47 52 64 43 62 60 55 57 58 55 48 44 41 37 30 24 20 11 4 1 3 8 12
20 18 13 17 23 31 43 39 38 35 41 35 34 29 37 33 43 46 46 51 44 54 53 56 54 53 52 53 52 52 47 43 38 34 27 21 12 6 3 4 11 11 11
16 16 12 14 24 28 38 44 43 43 42 35 36 34 34 35 44 45 46 45 45 44 59 68 56 54 54 56 59 54 46 42 37 30 24 16 8 5 7 11 12 11 11
12 13 11 14 19 24 34 43 45 44 44 39 42 42 37 35 43 48 50 44 41 55 54 61 63 65 56 57 56 50 47 40 34 28 21 13 8 8 13 13 12 11 9
14 15 17 19 20 24 32 39 45 47 45 41 52 49 34 41 55 49 44 37 39 60 65 72 68 57 58 60 50 43 41 37 31 27 18 11 10 13 15 15 14 10 5
9 14 15 21 24 27 31 36 41 43 43 50 54 38 31 17 45 34 38 43 31 60 62 68 52 57 59 54 50 45 41 34 28 19 14 12 14 18 17 16 12 9 4
12 11 18 18 25 33 37 40 43 42 44 48 42 34 28 56 32 34 38 34 53 56 55 50 46 49 51 63 49 40 32 29 24 18 14 15 18 18 20 17 11 6 8
9 13 16 24 25 31 36 40 45 48 45 46 43 40 49 37 49 54 48 46 54 46 44 33 39 50 51 49 43 34 32 28 24 18 18 19 20 22 20 14 10 10 9
15 15 19 23 27 32 38 40 46 48 45 46 48 42 51 54 51 61 54 59 63 51 42 39 59 59 55 46 45 35 36 32 24 23 19 22 23 21 19 14 11 8 11
22 16 24 29 29 34 38 42 43 41 55 42 48 44 38 31 45 61 59 61 56 47 40 31 71 54 58 55 44 35 35 30 26 21 22 25 22 22 18 11 12 12 14
27 25 25 31 30 36 38 42 45 53 39 47 61 39 35 34 38 48 65 62 55 46 48 54 40 46 56 61 47 41 36 31 26 24 25 24 24 18 17 17 15 16 18
22 27 31 26 27 33 40 42 43 40 43 47 50 37 32 26 39 59 54 56 50 38 44 46 45 28 23 28 38 35 32 31 29 28 26 20 18 20 20 21 19 19 21
33 29 33 31 31 33 37 40 37 38 38 40 45 37 18 14 31 58 60 50 40 33 23 34 23 30 24 26 30 30 27 29 28 27 21 23 21 24 23 24 22 25 26
29 27 27 24 27 34 33 37 38 37 35 35 33 24 20 25 48 69 52 40 26 31 25 33 25 39 37 28 39 33 29 29 29 27 27 25 27 27 25 28 30 32 33
26 35 31 34 39 33 34 30 29 31 29 28 33 33 30 55 70 51 49 25 10 30 28 39 32 38 39 32 36 30 19 20 23 24 29 30 28 30 32 34 38 41 39
26 23 30 37 32 27 27 26 27 35 34 34 34 36 46 74 60 36 36 19 13 18 30 32 27 25 25 21 29 24 23 27 26 40 32 33 35 37 40 43 47 47 46
25 28 29 26 26 21 23 30 33 37 39 37 38 48 48 53 47 37 29 29 24 21 29 22 25 26 25 28 25 24 25 29 27 33 36 37 41 45 48 50 53 55 55
27 28 28 27 31 30 29 27 31 34 35 36 36 33 34 38 36 34 27 23 31 27 29 27 26 27 24 27 27 21 25 21 28 35 40 45 46 47 49 52 56 59 59
23 26 28 24 23 34 36 37 33 32 35 39 40 36 38 35 38 37 31 27 32 24 23 20 18 18 19 22 20 27 26 26 31 35 44 46 45 60 63 64 63 59 59
24 22 21 22 30 33 31 29 29 30 29 29 33 36 31 33 31 27 23 20 20 22 23 22 16 17 19 26 26 29 29 31 32 31 42 54 43 55 59 69 68 73 75
26 24 20 18 25 27 28 29 30 30 32 32 32 31 27 28 24 20 17 18 19 19 21 21 23 22 21 23 24 23 32 39 39 44 41 55 55 54 55 56 69 77 80
28 26 22 19 17 23 26 27 27 25 27 29 28 26 27 27 24 21 19 17 15 13 11 12 9 11 17 23 29 34 27 30 37 41 41 48 58 64 58 57 53 64 66
28 25 22 19 19 24 28 31 28 17 25 23 27 26 25 22 24 23 21 16 11 3 6 11 17 24 29 34 39 43 44 40 40 46 42 47 49 50 58 53 43 28 45
Wind_Direction_500mb
269 264 254 229 220 208 215 196 193 195 202 202 203 198 198 199 200 195 195 193 183 175 182 187 172 164 168 167 169 165 162 164 158 155 152 151 148 146 146 130 102 52 40
277 284 271 225 202 192 193 194 198 195 200 207 190 197 188 205 191 191 193 192 196 191 194 186 174 162 163 160 165 167 164 162 160 156 158 154 150 149 141 130 60 39 37
285 283 280 193 184 180 185 189 181 190 199 180 185 186 197 200 179 172 177 179 182 179 183 168 161 162 167 163 169 172 166 164 162 162 161 156 150 149 142 75 30 45 74
270 276 241 185 184 186 178 181 186 184 176 176 180 185 197 184 178 167 160 159 170 171 169 188 164 161 165 162 171 170 166 169 172 163 163 160 156 153 159 155 115 119 107
260 270 239 197 186 185 179 177 180 179 171 167 170 187 182 180 174 168 167 166 162 169 170 162 156 163 165 166 166 170 174 175 174 166 165 168 162 176 223 152 141 120 106
244 247 228 189 177 180 174 169 176 180 164 167 167 168 164 173 174 170 168 173 175 168 169 157 157 160 165 170 172 173 176 176 176 170 171 180 196 222 182 150 138 137 137
237 220 177 172 163 173 171 172 169 165 160 168 155 157 150 150 170 168 156 156 159 164 157 160 156 165 176 177 171 173 178 178 178 177 183 195 227 195 165 160 157 163 151
201 188 181 168 172 166 164 165 164 161 162 166 153 154 130 139 151 168 164 164 169 177 172 167 171 177 174 174 172 173 179 181 185 187 192 214 207 179 182 173 173 177 179
176 180 174 176 173 167 164 164 164 164 155 163 163 163 139 144 156 147 160 166 163 169 169 166 174 180 179 166 172 181 183 186 189 190 212 220 197 189 179 188 191 208 226
151 182 186 185 170 174 174 174 168 164 161 162 159 158 161 161 144 140 160 168 166 164 166 177 184 186 159 162 177 181 183 195 196 211 218 206 203 192 190 206 216 242 260
79 136 160 184 184 176 175 172 169 162 160 165 161 150 154 152 160 152 145 171 165 171 172 182 177 170 154 166 173 183 196 200 212 222 212 207 199 202 206 220 233 236 264
81 120 142 153 164 165 168 165 162 161 162 151 152 152 156 159 167 161 142 148 165 168 171 175 169 167 168 170 179 195 203 210 217 204 205 208 204 214 225 224 235 261 285
58 105 139 135 138 147 153 155 158 163 157 158 153 144 158 164 168 167 158 148 145 154 167 166 172 172 178 178 194 196 203 209 202 207 203 206 215 224 229 237 254 277 282
51 118 120 129 123 136 141 143 148 155 150 148 148 141 143 159 172 173 161 155 148 136 162 162 164 175 181 181 190 205 201 203 206 197 204 212 224 231 242 243 259 273 282
67 88 111 112 122 125 135 146 148 147 149 153 162 140 131 139 160 169 165 155 159 150 145 153 166 184 168 179 194 195 204 203 197 195 207 222 235 243 247 253 260 276 291
86 99 111 111 117 127 140 150 151 152 148 148 158 167 162 122 165 165 161 159 159 158 165 187 170 174 179 192 193 177 209 193 197 206 217 232 244 251 255 263 275 278 290
87 104 112 117 118 123 134 142 148 143 143 147 162 171 197 143 155 152 154 149 147 171 198 151 195 181 178 174 181 166 206 203 213 222 230 242 250 258 269 274 276 283 287
83 94 101 110 130 119 124 137 151 152 161 152 156 177 184 167 149 155 161 140 138 198 171 165 179 180 175 186 184 175 206 212 237 251 243 252 261 272 274 277 280 280 284
109 99 101 95 99 119 132 132 122 134 137 143 151 166 169 165 164 148 158 150 165 154 178 166 164 164 170 182 188 192 203 206 217 246 258 266 272 274 278 280 279 282 285
109 111 100 104 103 106 110 129 132 127 125 130 132 146 146 165 165 159 165 168 164 162 147 163 158 171 181 194 196 205 224 221 225 262 272 272 271 272 273 278 280 282 283
122 119 113 115 110 105 112 118 127 133 135 133 135 137 145 154 165 156 171 152 159 157 161 161 170 184 188 204 209 219 233 246 265 243 266 285 287 284 282 282 284 284 283
130 126 122 122 132 131 128 124 120 126 132 137 145 150 151 158 156 156 158 156 149 156 153 165 181 190 211 225 226 221 237 236 249 270 285 281 271 287 293 297 299 295 292
147 141 134 127 134 137 137 136 131 130 128 128 126 128 129 143 150 153 150 154 165 168 174 186 180 195 217 228 222 245 234 249 263 262 273 272 268 274 277 286 282 289 292
155 151 144 140 152 152 149 147 142 144 145 147 148 143 158 159 164 164 169 172 178 192 203 211 216 214 226 219 255 263 261 270 271 271 261 266 279 270 273 276 282 283 285
166 163 160 157 170 174 171 168 150 155 163 161 163 170 173 178 176 172 163 168 172 177 187 217 237 259 266 265 267 269 264 273 279 283 283 278 280 280 282 285 288 286 281
175 172 176 176 184 189 185 178 165 163 177 175 183 184 178 169 163 158 151 154 142 179 244 258 265 271 276 277 274 273 272 267 274 282 289 290 289 289 288 289 288 277 272
Wind_Speed_850mb
24 19 24 30 42 45 40 37 34 33 31 34 40 38 35 33 37 36 38 39 36 43 28 56 67 63 57 52 48 50 52 51 51 45 40 34 28 22 16 11 6 6 8
19 15 15 19 42 43 39 34 34 35 34 40 39 27 30 32 38 33 36 42 42 50 40 60 67 68 51 53 48 52 53 54 47 41 37 34 27 19 12 5 5 8 9
18 13 6 12 31 41 39 34 33 32 39 38 35 35 33 35 38 36 38 40 51 53 62 64 67 56 57 56 51 49 53 49 43 38 33 29 24 17 7 3 5 5 7
20 14 9 12 28 34 37 38 35 34 38 36 33 35 34 38 43 40 39 51 47 52 64 43 62 60 55 57 58 55 48 44 41 37 30 24 20 11 4 1 3 8 12
20 18 13 17 23 31 43 39 38 35 41 35 34 29 37 33 43 46 46 51 44 54 53 56 54 53 52 53 52 52 47 43 38 34 27 21 12 6 3 4 11 11 11
16 16 12 14 24 28 38 44 43 43 42 35 36 34 34 35 44 45 46 45 45 44 59 68 56 54 54 56 59 54 46 42 37 30 24 16 8 5 7 11 12 11 11
12 13 11 14 19 24 34 43 45 44 44 39 42 42 37 35 43 48 50 44 41 55 54 61 63 65 56 57 56 50 47 40 34 28 21 13 8 8 13 13 12 11 9
14 15 17 19 20 24 32 39 45 47 45 41 52 49 34 41 55 49 44 37 39 60 65 72 68 57 58 60 50 43 41 37 31 27 18 11 10 13 15 15 14 10 5
9 14 15 21 24 27 31 36 41 43 43 50 54 38 31 17 45 34 38 43 31 60 62 68 52 57 59 54 50 45 41 34 28 19 14 12 14 18 17 16 12 9 4
12 11 18 18 25 33 37 40 43 42 44 48 42 34 28 56 32 34 38 34 53 56 55 50 46 49 51 63 49 40 32 29 24 18 14 15 18 18 20 17 11 6 8
9 13 16 24 25 31 36 40 45 48 45 46 43 40 49 37 49 54 48 46 54 46 44 33 39 50 51 49 43 34 32 28 24 18 18 19 20 22 20 14 10 10 9
15 15 19 23 27 32 38 40 46 48 45 46 48 42 51 54 51 61 54 59 63 51 42 39 59 59 55 46 45 35 36 32 24 23 19 22 23 21 19 14 11 8 11
22 16 24 29 29 34 38 42 43 41 55 42 48 44 38 31 45 61 59 61 56 47 40 31 71 54 58 55 44 35 35 30 26 21 22 25 22 22 18 11 12 12 14
27 25 25 31 30 36 38 42 45 53 39 47 61 39 35 34 38 48 65 62 55 46 48 54 40 46 56 61 47 41 36 31 26 24 25 24 24 18 17 17 15 16 18
22 27 31 26 27 33 40 42 43 40 43 47 50 37 32 26 39 59 54 56 50 38 44 46 45 28 23 28 38 35 32 31 29 28 26 20 18 20 20 21 19 19 21
33 29 33 31 31 33 37 40 37 38 38 40 45 37 18 14 31 58 60 50 40 33 23 34 23 30 24 26 30 30 27 29 28 27 21 23 21 24 23 24 22 25 26
29 27 27 24 27 34 33 37 38 37 35 35 33 24 20 25 48 69 52 40 26 31 25 33 25 39 37 28 39 33 29 29 29 27 27 25 27 27 25 28 30 32 33
26 35 31 34 39 33 34 30 29 31 29 28 33 33 30 55 70 51 49 25 10 30 28 39 32 38 39 32 36 30 19 20 23 24 29 30 28 30 32 34 38 41 39
26 23 30 37 32 27 27 26 27 35 34 34 34 36 46 74 60 36 36 19 13 18 30 32 27 25 25 21 29 24 23 27 26 40 32 33 35 37 40 43 47 47 46
25 28 29 26 26 21 23 30 33 37 39 37 38 48 48 53 47 37 29 29 24 21 29 22 25 26 25 28 25 24 25 29 27 33 36 37 41 45 48 50 53 55 55
27 28 28 27 31 30 29 27 31 34 35 36 36 33 34 38 36 34 27 23 31 27 29 27 26 27 24 27 27 21 25 21 28 35 40 45 46 47 49 52 56 59 59
23 26 28 24 23 34 36 37 33 32 35 39 40 36 38 35 38 37 31 27 32 24 23 20 18 18 19 22 20 27 26 26 31 35 44 46 45 60 63 64 63 59 59
24 22 21 22 30 33 31 29 29 30 29 29 33 36 31 33 31 27 23 20 20 22 23 22 16 17 19 26 26 29 29 31 32 31 42 54 43 55 59 69 68 73 75
26 24 20 18 25 27 28 29 30 30 32 32 32 31 27 28 24 20 17 18 19 19 21 21 23 22 21 23 24 23 32 39 39 44 41 55 55 54 55 56 69 77 80
28 26 22 19 17 23 26 27 27 25 27 29 28 26 27 27 24 21 19 17 15 13 11 12 9 11 17 23 29 34 27 30 37 41 41 48 58 64 58 57 53 64 66
28 25 22 19 19 24 28 31 28 17 25 23 27 26 25 22 24 23 21 16 11 3 6 11 17 24 29 34 39 43 44 40 40 46 42 47 49 50 58 53 43 28 45
Wind_Direction_850mb
269 264 254 229 220 208 215 196 193 195 202 202 203 198 198 199 200 195 195 193 183 175 182 187 172 164 168 167 169 165 162 164 158 155 152 151 148 146 146 130 102 52 40
277 284 271 225 202 192 193 194 198 195 200 207 190 197 188 205 191 191 193 192 196 191 194 186 174 162 163 160 165 167 164 162 160 156 158 154 150 149 141 130 60 39 37
285 283 280 193 184 180 185 189 181 190 199 180 185 186 197 200 179 172 177 179 182 179 183 168 161 162 167 163 169 172 166 164 162 162 161 156 150 149 142 75 30 45 74
270 276 241 185 184 186 178 181 186 184 176 176 180 185 197 184 178 167 160 159 170 171 169 188 164 161 165 162 171 170 166 169 172 163 163 160 156 153 159 155 115 119 107
260 270 239 197 186 185 179 177 180 179 171 167 170 187 182 180 174 168 167 166 162 169 170 162 156 163 165 166 166 170 174 175 174 166 165 168 162 176 223 152 141 120 106
244 247 228 189 177 180 174 169 176 180 164 167 167 168 164 173 174 170 168 173 175 168 169 157 157 160 165 170 172 173 176 176 176 170 171 180 196 222 182 150 138 137 137
237 220 177 172 163 173 171 172 169 165 160 168 155 157 150 150 170 168 156 156 159 164 157 160 156 165 176 177 171 173 178 178 178 177 183 195 227 195 165 160 157 163 151
201 188 181 168 172 166 164 165 164 161 162 166 153 154 130 139 151 168 164 164 169 177 172 167 171 177 174 174 172 173 179 181 185 187 192 214 207 179 182 173 173 177 179
176 180 174 176 173 167 164 164 164 164 155 163 163 163 139 144 156 147 160 166 163 169 169 166 174 180 179 166 172 181 183 186 189 190 212 220 197 189 179 188 191 208 226
151 182 186 185 170 174 174 174 168 164 161 162 159 158 161 161 144 140 160 168 166 164 166 177 184 186 159 162 177 181 183 195 196 211 218 206 203 192 190 206 216 242 260
79 136 160 184 184 176 175 172 169 162 160 165 161 150 154 152 160 152 145 171 165 171 172 182 177 170 154 166 173 183 196 200 212 222 212 207 199 202 206 220 233 236 264
81 120 142 153 164 165 168 165 162 161 162 151 152 152 156 159 167 161 142 148 165 168 171 175 169 167 168 170 179 195 203 210 217 204 205 208 204 214 225 224 235 261 285
58 105 139 135 138 147 153 155 158 163 157 158 153 144 158 164 168 167 158 148 145 154 167 166 172 172 178 178 194 196 203 209 202 207 203 206 215 224 229 237 254 277 282
51 118 120 129 123 136 141 143 148 155 150 148 148 141 143 159 172 173 161 155 148 136 162 162 164 175 181 181 190 205 201 203 206 197 204 212 224 231 242 243 259 273 282
67 88 111 112 122 125 135 146 148 147 149 153 162 140 131 139 160 169 165 155 159 150 145 153 166 184 168 179 194 195 204 203 197 195 207 222 235 243 247 253 260 276 291
86 99 111 111 117 127 140 150 151 152 148 148 158 167 162 122 165 165 161 159 159 158 165 187 170 174 179 192 193 177 209 193 197 206 217 232 244 251 255 263 275 278 290
87 104 112 117 118 123 134 142 148 143 143 147 162 171 197 143 155 152 154 149 147 171 198 151 195 181 178 174 181 166 206 203 213 222 230 242 250 258 269 274 276 283 287
83 94 101 110 130 119 124 137 151 152 161 152 156 177 184 167 149 155 161 140 138 198 171 165 179 180 175 186 184 175 206 212 237 251 243 252 261 272 274 277 280 280 284
109 99 101 95 99 119 132 132 122 134 137 143 151 166 169 165 164 148 158 150 165 154 178 166 164 164 170 182 188 192 203 206 217 246 258 266 272 274 278 280 279 282 285
109 111 100 104 103 106 110 129 132 127 125 130 132 146 146 165 165 159 165 168 164 162 147 163 158 171 181 194 196 205 224 221 225 262 272 272 271 272 273 278 280 282 283
122 119 113 115 110 105 112 118 127 133 135 133 135 137 145 154 165 156 171 152 159 157 161 161 170 184 188 204 209 219 233 246 265 243 266 285 287 284 282 282 284 284 283
130 126 122 122 132 131 128 124 120 126 132 137 145 150 151 158 156 156 158 156 149 156 153 165 181 190 211 225 226 221 237 236 249 270 285 281 271 287 293 297 299 295 292
147 141 134 127 134 137 137 136 131 130 128 128 126 128 129 143 150 153 150 154 165 168 174 186 180 195 217 228 222 245 234 249 263 262 273 272 268 274 277 286 282 289 292
155 151 144 140 152 152 149 147 142 144 145 147 148 143 158 159 164 164 169 172 178 192 203 211 216 214 226 219 255 263 261 270 271 271 261 266 279 270 273 276 282 283 285
166 163 160 157 170 174 171 168 150 155 163 161 163 170 173 178 176 172 163 168 172 177 187 217 237 259 266 265 267 269 264 273 279 283 283 278 280 280 282 285 288 286 281
175 172 176 176 184 189 185 178 165 163 177 175 183 184 178 169 163 158 151 154 142 179 244 258 265 271 276 277 274 273 272 267 274 282 289 290 289 289 288 289 288 277 272